Find Starlink 34165

NORAD ID: 63997 Int'l Des: 2025-101 Owner: SPXS Country: US Constellation: starlink operational
LEOCIRCULAR

リアルタイム位置

3D地球を読み込み中...

Starlink 34165について

説明を読み込み中...

次回通過

Passes for default location (London). Set your location on the main map for personalized predictions.

高度履歴

Loading altitude history...

軌道要素

1 63997U 25101D 26106.44930551 .00006050 00000-0 22914-3 0 9991
2 63997 42.9991 144.4076 0001399 269.5433 90.5258 15.27589917 52831
Epoch: Apr 16, 2026 • Age: 30 hours

現在のステータス

高度 489.5 km
速度 7.62 km/s
衛星直下点 -28.01°S, 10.9°E
打ち上げ日 May 14, 2025
運用期間 0.9 years
タイプ internet

技術仕様

分類 Payload
質量 575.00 kg
乾燥質量 530.00 kg
総質量 575.00 kg
長さ 0.30 m
直径 4.10 m
スパン 29.00 m
形状 Box + pan
製造者 SPXS
バスタイプ Starlink V2MO
フェーズステータス In Orbit
所有者/国 SPXS/US

Most Searched